(256338) = 2006 XR29

Discovered at Mount Lemmon on 2006-12-13 by Mt. Lemmon Survey.

Orbit

Orbit type: Main Belt

Note: WebGL enabled browser required.

epoch2024-03-31.0
epoch JD2460400.5
perihelion date2020-11-11.72431
perihelion JD2459165.22431
argument of perihelion (°)90.86669
ascending node (°)85.85098
inclination (°)15.55099
eccentricity0.0363320
perihelion distance (AU)2.5364033
Tisserand w.r.t. Jupiter3.3
ΔV w.r.t. Earth (km/sec)11.1
semimajor axis (AU)2.6320301
mean anomaly (°)285.12248
mean daily motion (°/day)0.23081690
aphelion distance (AU)2.728
period (years)4.27
P-vector [x]-0.96185190
P-vector [y]-0.05652845
P-vector [z]0.26766668
Q-vector [x]-0.05780843
Q-vector [y]-0.91432712
Q-vector [z]-0.40082927
absolute magnitude16.3
phase slope0.15
uncertainty0
referenceMPEC 2024-E152
observations used364
oppositions14
arc length (days)7240
first opposition used2004
last opposition used2024
residual rms (arc-secs)0.80
perturbers coarse indicatorM-v
perturbers precise indicator003Ek
first observation date used2004-05-14.0
last observation date used2024-03-10.0
computer nameMPCLINUX
JD of orbit computation2456966.815908
perihelion JD uncertainty (days)6.0568E-04
argument of perihelion uncertainty (°)1.3815E-04
ascending node uncertainty (°)3.3027E-05
inclination uncertainty (°)8.9323E-06
eccentricity uncertainty 8.7102E-08
perihelion distance uncertainty (AU)2.2878E-07
Minimum Orbit Intersection Distances (in AU)
for orbit epoch: 2460400.5, reference: E2024-EF2
Mercury2.12289
Venus1.83909
Earth1.58282
Mars0.97144
Jupiter2.36221
Saturn6.40758
Uranus15.9907
Neptune27.1647

Observations

374 total observations over interval: 2004 05 14.32471 – 2024 03 10.54616
These data are available for download (format description).

Date (UT) J2000 RA J2000 Dec Magn Location Ref
2004 05 14.32471 15 23 22.53 -03 12 54.9 19.8 V 691 – Steward Observatory, Kitt Peak-Spacewatch MPS 249009
2004 05 14.35943 15 23 20.42 -03 12 58.7 19.9 V 691 – Steward Observatory, Kitt Peak-Spacewatch MPS 249009
2004 05 14.39251 15 23 18.37 -03 13 02.2 19.6 V 691 – Steward Observatory, Kitt Peak-Spacewatch MPS 249009
2006 12 13.32387 05 15 44.38 +20 21 22.1 18.9 V G96 – Mt. Lemmon Survey MPS 192628
2006 12 13.33245 05 15 43.77 +20 21 24.5 19.1 V G96 – Mt. Lemmon Survey MPS 192628
2006 12 13.34108 05 15 43.16 +20 21 27.0 19.0 V G96 – Mt. Lemmon Survey MPS 192628
2006 12 13.34944 05 15 42.62 +20 21 29.3 19.0 V G96 – Mt. Lemmon Survey MPS 192628
2006 12 13.94980 05 15 02.85 +20 24 19.2 21.8 V 104 – San Marcello Pistoiese MPS 192628
2006 12 13.96193 05 15 02.13 +20 24 21.7 21.3 V 104 – San Marcello Pistoiese MPS 192628
2006 12 13.97402 05 15 01.33 +20 24 26.2 19.9 V 104 – San Marcello Pistoiese MPS 192628
2006 12 14.27073 05 14 41.65 +20 25 52.1 19.7   704 – Lincoln Laboratory ETS, New Mexico MPS 192628
2006 12 14.28389 05 14 40.87 +20 25 55.8 19.9   704 – Lincoln Laboratory ETS, New Mexico MPS 192628
2006 12 14.32347 05 14 38.09 +20 26 05.8 20.4   704 – Lincoln Laboratory ETS, New Mexico MPS 192628
2006 12 27.23032 05 00 56.80 +21 26 58.8 19.6 V G96 – Mt. Lemmon Survey MPS 192628
2006 12 27.23700 05 00 56.41 +21 27 00.6 19.8 V G96 – Mt. Lemmon Survey MPS 192628
2006 12 27.24380 05 00 56.01 +21 27 03.6 18.9 V G96 – Mt. Lemmon Survey MPS 192628
2006 12 27.25061 05 00 55.58 +21 27 04.6 19.2 V G96 – Mt. Lemmon Survey MPS 192628
2007 01 08.29177 04 50 39.98 +22 22 17.7 20.1 V G96 – Mt. Lemmon Survey MPS 195583
2007 01 08.29709 04 50 39.80 +22 22 19.3 20.2 V G96 – Mt. Lemmon Survey MPS 195583
2007 01 08.30243 04 50 39.55 +22 22 20.8 20.2 V G96 – Mt. Lemmon Survey MPS 195583
2007 01 08.30774 04 50 39.30 +22 22 21.8 20.2 V G96 – Mt. Lemmon Survey MPS 195583
2007 02 07.17560 04 43 14.52 +24 34 48.7 20.8 V G96 – Mt. Lemmon Survey MPS 198767
2007 02 07.17682 04 43 14.48 +24 34 48.8 20.5 V G96 – Mt. Lemmon Survey MPS 198768
2007 02 07.18409 04 43 14.59 +24 34 50.9 20.7 V G96 – Mt. Lemmon Survey MPS 198768
2007 02 07.18516 04 43 14.59 +24 34 51.2 20.7 V G96 – Mt. Lemmon Survey MPS 198768
2007 02 07.19236 04 43 14.66 +24 34 52.8 20.9 V G96 – Mt. Lemmon Survey MPS 198768
2007 02 07.19344 04 43 14.66 +24 34 53.0 20.4 V G96 – Mt. Lemmon Survey MPS 198768
2007 02 07.20072 04 43 14.77 +24 34 55.0 20.5 V G96 – Mt. Lemmon Survey MPS 198768
2007 02 07.20183 04 43 14.77 +24 34 55.2 20.1 V G96 – Mt. Lemmon Survey MPS 198768
2008 04 04.25025 13 43 17.06 +14 47 16.9 19.5   704 – Lincoln Laboratory ETS, New Mexico MPS 248188
2008 04 04.26184 13 43 16.35 +14 47 19.7 19.9   704 – Lincoln Laboratory ETS, New Mexico MPS 248188
2008 04 04.28499 13 43 15.08 +14 47 25.2 19.7   704 – Lincoln Laboratory ETS, New Mexico MPS 248188
2008 04 04.29686 13 43 14.51 +14 47 28.4 19.8   704 – Lincoln Laboratory ETS, New Mexico MPS 248188
2008 04 29.33944 13 20 39.37 +15 08 20.8 19.8 V 703 – Catalina Sky Survey MPS 248188
2008 04 29.34560 13 20 39.15 +15 08 21.1 20.2 V 703 – Catalina Sky Survey MPS 248188
2008 04 29.35175 13 20 38.83 +15 08 18.4 20.4 V 703 – Catalina Sky Survey MPS 248188
2008 04 29.35787 13 20 38.54 +15 08 18.4 20.5 V 703 – Catalina Sky Survey MPS 248188
2008 05 05.24045 13 16 14.48 +14 48 33.5 20.0 V 703 – Catalina Sky Survey MPS 249009
2008 05 05.24755 13 16 14.16 +14 48 32.2 20.2 V 703 – Catalina Sky Survey MPS 249009
2008 05 05.25466 13 16 13.72 +14 48 29.5 21.1 V 703 – Catalina Sky Survey MPS 249009
2008 05 05.26178 13 16 13.47 +14 48 28.6 20.3 V 703 – Catalina Sky Survey MPS 249009
2010 10 02.45641 04 01 35.79 +05 21 17.1 20.6 V G96 – Mt. Lemmon Survey MPS 349514
2010 10 02.46338 04 01 35.68 +05 21 16.5 20.0 V G96 – Mt. Lemmon Survey MPS 349514
2010 10 02.47027 04 01 35.65 +05 21 15.6 20.4 V G96 – Mt. Lemmon Survey MPS 349514
2010 10 02.47725 04 01 35.54 +05 21 14.9 20.5 V G96 – Mt. Lemmon Survey MPS 349514
2010 10 30.515462 03 46 45.572 +04 41 52.07 20.36 r F51 – Pan-STARRS 1, Haleakala MPS 365343
2010 10 30.527337 03 46 44.910 +04 41 51.35 20.21 r F51 – Pan-STARRS 1, Haleakala MPS 365343
2010 11 06.35869 03 40 30.79 +04 39 06.5 20.2 V 703 – Catalina Sky Survey MPS 355453
2010 11 06.36847 03 40 30.25 +04 39 06.1 19.6 V 703 – Catalina Sky Survey MPS 355453
2010 11 06.37827 03 40 29.56 +04 39 06.1 19.6 V 703 – Catalina Sky Survey MPS 355453
2010 11 06.38810 03 40 29.02 +04 39 06.8 20.3 V 703 – Catalina Sky Survey MPS 355453
2010 11 07.322465 03 39 34.88 +04 39 04.3 20.5 V H21 – Astronomical Research Observatory, Westfield MPS 355453
2010 11 07.328401 03 39 34.52 +04 39 03.8 20.4 V H21 – Astronomical Research Observatory, Westfield MPS 355453
2010 11 07.334434 03 39 34.15 +04 39 04.3 20.4 V H21 – Astronomical Research Observatory, Westfield MPS 355453
2010 11 16.498115 03 30 21.391 +04 44 34.66 19.95 i F51 – Pan-STARRS 1, Haleakala MPS 365343
2010 11 16.509445 03 30 20.658 +04 44 35.46 20.03 i F51 – Pan-STARRS 1, Haleakala MPS 365343
2012 01 26.05519 11 55 51.29 +23 15 55.0 20.1 R 106 – Crni Vrh MPS 410013
2012 01 26.07241 11 55 51.31 +23 16 03.9 19.6 R 106 – Crni Vrh MPS 410013
2012 01 26.08965 11 55 51.35 +23 16 13.9 19.4 R 106 – Crni Vrh MPS 410013
2012 01 26.10689 11 55 51.36 +23 16 23.9 19.5 R 106 – Crni Vrh MPS 410013
2012 01 31.65358 11 55 31.702 +24 09 47.70 20.1 z F51 – Pan-STARRS 1, Haleakala MPS 411434
2012 01 31.65910 11 55 31.641 +24 09 50.94 20.0 z F51 – Pan-STARRS 1, Haleakala MPS 411434
2012 02 18.43938 11 48 26.28 +27 10 33.1 19.5 V 703 – Catalina Sky Survey MPS 414047
2012 02 18.44671 11 48 26.02 +27 10 35.7 19.6 V 703 – Catalina Sky Survey MPS 414047
2012 02 18.45413 11 48 25.63 +27 10 42.2 21.1 V 703 – Catalina Sky Survey MPS 414047
2012 02 18.46151 11 48 25.34 +27 10 45.0 20.0 V 703 – Catalina Sky Survey MPS 414047
2012 02 25.41532 11 43 25.35 +28 16 25.6 20.0 V 703 – Catalina Sky Survey MPS 415984
2012 02 25.41978 11 43 25.06 +28 16 28.9 21.4 V 703 – Catalina Sky Survey MPS 415984
2012 02 25.42429 11 43 24.81 +28 16 30.9 19.6 V 703 – Catalina Sky Survey MPS 415984
2012 02 25.42889 11 43 24.67 +28 16 34.5 20.0 V 703 – Catalina Sky Survey MPS 415984
2012 03 24.87011 11 18 10.59 +30 44 22.8 19.8   A14 – Les Engarouines Observatory MPS 420103
2012 03 24.88957 11 18 09.57 +30 44 23.4 19.4   A14 – Les Engarouines Observatory MPS 420103
2012 03 24.90934 11 18 08.54 +30 44 24.9 20.2   A14 – Les Engarouines Observatory MPS 420103
2013 07 03.43765 18 43 09.960 -29 22 49.94 20.0 g F51 – Pan-STARRS 1, Haleakala MPS 471719
2013 07 03.44784 18 43 09.291 -29 22 53.96 20.1 g F51 – Pan-STARRS 1, Haleakala MPS 471719
2014 09 14.58197 02 23 20.828 -08 05 12.10 20.3 i F51 – Pan-STARRS 1, Haleakala MPS 532812
2014 09 14.59319 02 23 20.579 -08 05 15.67 20.6 i F51 – Pan-STARRS 1, Haleakala MPS 532812
2014 09 14.60437 02 23 20.349 -08 05 19.62 20.5 i F51 – Pan-STARRS 1, Haleakala MPS 532812
2014 09 14.61555 02 23 20.105 -08 05 23.32 20.2 i F51 – Pan-STARRS 1, Haleakala MPS 532812
2014 10 23.25680 01 55 22.69 -10 53 58.9 20.4 r G45 – Space Surveillance Telescope, Atom Site MPS 557841
2014 10 23.26822 01 55 22.08 -10 53 59.8 20.5 r G45 – Space Surveillance Telescope, Atom Site MPS 557841
2014 10 23.27948 01 55 21.35 -10 53 59.7 20.4 r G45 – Space Surveillance Telescope, Atom Site MPS 557841
2014 10 23.29525 01 55 20.42 -10 54 02.2 20.4 r G45 – Space Surveillance Telescope, Atom Site MPS 557841
2014 10 23.30778 01 55 19.74 -10 54 02.1 20.5 r G45 – Space Surveillance Telescope, Atom Site MPS 557841
2014 10 24.24998 01 54 26.11 -10 55 19.4 20.1 r G45 – Space Surveillance Telescope, Atom Site MPS 557841
2014 10 24.26148 01 54 25.45 -10 55 22.5 19.8 r G45 – Space Surveillance Telescope, Atom Site MPS 557841
2014 10 24.27751 01 54 24.54 -10 55 22.8 20.6 r G45 – Space Surveillance Telescope, Atom Site MPS 557841
2014 10 24.29011 01 54 23.78 -10 55 23.3 20.2 r G45 – Space Surveillance Telescope, Atom Site MPS 557841
2014 10 27.37491 01 51 29.089 -10 58 08.48 20.2 w F51 – Pan-STARRS 1, Haleakala MPS 543921
2014 10 27.38816 01 51 28.315 -10 58 08.73 20.3 w F51 – Pan-STARRS 1, Haleakala MPS 543921
